SL-14 DEB

Satellite information

Favourite Embed

Satellite Type and Status

DEBRISIN ORBIT

Key statistics

Satellite SL-14 DEB at a glance.

Uptime

12441

Days in orbit

Revolutions

≈ 14.0

Per day

Orbit

LEO

Low Earth Orbit

Inclination

82.5

Latest

Satellite identification and parameters

Extended collection of information and parameters for SL-14 DEB.

Object identification

Identified? True

Debris? True

Object name: SL-14 DEB

International designator: 1991-056DE

Object number (NORAD): 47080

Object ID (CCSDS): 47080

Country: COMMONWEALTH OF INDEPENDENT STATES (CIS)

Current information (Y/N): Y

RCS size: SMALL

Orbital parameters

Period: 102.845 minutes

Inclination: 82.5093 deg

SMA: 7271.337 km

Apoapsis: 994.769 km

Periapsis: 791.635 km

RAAN: 198.3204 deg

Eccentricy: 0.01396811

Argument of periapsis: 278.6168 deg

Mean anomaly: 79.9197 deg

Mean motion: 14.0017188 rev/day

Mean motion (dot): 0.00030184 rev/day2

B* drag term: 0.018736987 1/REarth

Two-line elements (TLE)

Creation date: Sept. 3, 2025, 2:21 a.m.

Reference frame: TEME

Reference center: EARTH

Epoch: Sept. 2, 2025, 2:21 p.m. UTC

TLE line 0: 0 SL-14 DEB

TLE line 1: 1 47080U 91056DE 25245.59801152 .00030184 00000-0 18737-1 0 9992

TLE line 2: 2 47080 82.5093 198.3204 0139681 278.6168 79.9197 14.00171880241594

Live tracking on map

Real-time ground track for satellite SL-14 DEB.

In-orbit conjunctions

A list of the most updated potential collisions computed for object SL-14 DEB.

Target Orbit TCA Probability of collision Miss distance Type
SL-8 R/B LEO 2025-01-28 23:25:39 0.0002442865 114.0 (m) ROCKET BODY
SL-8 R/B LEO 2024-11-10 20:49:50 0.000217706 384.0 (m) ROCKET BODY

Associated space launch

Third generation meteorological satellite

SL-14 DEB was lifted into orbit during the mission ‘Tsiklon-3 | Meteor-3 5’, on board a Tsiklon-3 space rocket.

The launch took place on Aug. 15, 1991, 9:15 a.m. from 32/2.

For more information about the launch, click the button.

Launch to space Tsiklon-3 | Meteor-3 5
Tsiklon-3 | Meteor-3 5

Agency: N/A

Status: Launch Successful

Launch date: Aug. 15, 1991, 9:15 a.m. UTC

Rocket: Tsiklon-3

Launch pad: 32/2

Location: Plesetsk Cosmodrome, Russian Federation

...

Latest news about this satellite

There are no fresh news available about this satellite. Check back as we update our databases every day.


Newsletter sign-up

Weekly statistics, charts and insights to help you stay on top of the space industry.